Weather History for KODX - November, 2012

Change the Weather History Date:

Thursday, November 8, 2012

  Actual Average Record
Temperature  
Mean Temperature 48 °F 40 °F  
Max Temperature 62 °F 52 °F 82 °F (2006)
Min Temperature 33 °F 28 °F 14 °F (2000)
Degree Days  
Heating Degree Days 17 25  
Month to date heating degree days 188 188  
Since 1 July heating degree days 879 808  
Cooling Degree Days 0 0  
Month to date cooling degree days 0 0  
Year to date cooling degree days 1220 845  
Moisture  
Dew Point 30 °F    
Average Humidity 61    
Maximum Humidity 89    
Minimum Humidity 32    
Precipitation  
Precipitation 0.00 in 0.04 in 0.55 in (1970)
Month to date precipitation T 0.35  
Year to date precipitation 11.37 23.63  
Sea Level Pressure  
Sea Level Pressure 29.90 in    
Wind  
Wind Speed 9 mph (North)    
Max Wind Speed 17 mph    
Max Gust Speed 22 mph    
Visibility 10 miles    
Events      
T = Trace of Precipitation, MM = Missing Value Source: NWS Daily Summary

Daily Weather History Graph

Daily Weather History Graph

Search for Another Location

Airport or City:

Trip Planner

Search our weather history database for the weather conditions in past years. The results will help you decide how hot, cold, wet, or windy it might be!

Date:

Astronomy

Nov. 08, 2012 Rise Set
Actual Time 7:16 AM CST 5:21 PM CST
Civil Twilight 6:47 AM CST 5:51 PM CST
Nautical Twilight 6:14 AM CST 6:24 PM CST
Astronomical Twilight 5:41 AM CST 6:56 PM CST
Moon 1:09 AM CST (11/8) 2:07 PM CST (11/8)
Length of Visible Light 11h 03m
Length of Day
10h 04m
Waning Crescent, 32% of the Moon is Illuminated
Nov 8
Waning Crescent
Nov 13
New
Nov 20
First Quarter
Nov 28
Full
Dec 6
Last Quarter

Hourly Weather History & Observations

Time (CST) Temp. Windchill Dew Point Humidity Pressure Visibility Wind Dir Wind Speed Gust Speed Precip Events Conditions
12:53 AM 44.1 °F 39.5 °F 27.0 °F 51% 29.90 in 10.0 mi South 8.1 mph - N/A   Clear
1:53 AM 44.6 °F 39.2 °F 26.6 °F 49% 29.87 in 10.0 mi South 10.4 mph - N/A   Clear
2:53 AM 39.9 °F 37.8 °F 27.0 °F 60% 29.88 in 10.0 mi SE 3.5 mph - N/A   Clear
3:53 AM 43.0 °F 38.2 °F 27.0 °F 53% 29.86 in 10.0 mi SSE 8.1 mph - N/A   Clear
4:53 AM 43.0 °F 37.7 °F 27.0 °F 53% 29.85 in 10.0 mi South 9.2 mph - N/A   Clear
5:53 AM 43.0 °F 38.8 °F 26.1 °F 51% 29.85 in 10.0 mi South 6.9 mph - N/A   Clear
6:53 AM 39.9 °F 35.8 °F 26.1 °F 58% 29.87 in 10.0 mi South 5.8 mph - N/A   Clear
7:53 AM 37.9 °F 35.5 °F 26.1 °F 62% 29.91 in 10.0 mi South 3.5 mph - N/A   Clear
8:53 AM 45.0 °F 41.8 °F 28.0 °F 52% 29.91 in 10.0 mi WSW 5.8 mph - N/A   Clear
9:53 AM 50.0 °F - 30.9 °F 48% 29.90 in 10.0 mi NW 12.7 mph - N/A   Clear
10:53 AM 55.0 °F - 33.1 °F 43% 29.90 in 10.0 mi NNW 13.8 mph - N/A   Clear
11:53 AM 59.0 °F - 33.1 °F 38% 29.88 in 10.0 mi North 13.8 mph 19.6 mph N/A   Clear
12:53 PM 61.0 °F - 32.0 °F 34% 29.86 in 10.0 mi North 13.8 mph - N/A   Clear
1:53 PM 62.1 °F - 32.0 °F 32% 29.85 in 10.0 mi North 16.1 mph 21.9 mph N/A   Clear
2:53 PM 61.0 °F - 32.0 °F 34% 29.87 in 10.0 mi North 11.5 mph - N/A   Clear
3:53 PM 59.0 °F - 32.0 °F 36% 29.88 in 10.0 mi NE 13.8 mph - N/A   Clear
4:53 PM 55.9 °F - 32.0 °F 40% 29.89 in 10.0 mi NNE 11.5 mph - N/A   Clear
5:53 PM 48.0 °F - 30.9 °F 52% 29.93 in 10.0 mi NNE 6.9 mph - N/A   Clear
6:53 PM 42.1 °F 38.4 °F 30.0 °F 62% 29.96 in 10.0 mi North 5.8 mph - N/A   Clear
7:53 PM 36.0 °F 30.3 °F 28.0 °F 73% 29.96 in 10.0 mi NW 6.9 mph - N/A   Clear
8:53 PM 39.0 °F 36.8 °F 30.0 °F 70% 29.94 in 10.0 mi NNW 3.5 mph - N/A   Clear
9:53 PM 39.9 °F 35.1 °F 34.0 °F 79% 29.93 in 10.0 mi North 6.9 mph - N/A   Clear
10:53 PM 36.0 °F 30.3 °F 32.0 °F 86% 29.93 in 8.0 mi North 6.9 mph - N/A   Clear
11:53 PM 35.1 °F 27.4 °F 32.0 °F 89% 29.92 in 6.0 mi North 10.4 mph - N/A   Clear